| time (UTC) | temp F | wind direction | speed MPH | gust MPH | rain 1hr in | rain 24hr in | rain mn in | humidity % | barometer mb |
| 20260510180039 | 56 | 94 | 6.0 | 13.0 | 0.00 | 0.00 | 0.00 | 37 | 1019.0 |
| 20260510174550 | 57 | 144 | 6.0 | 12.0 | 0.00 | 0.00 | 0.00 | 35 | 1019.1 |
| 20260510173033 | 56 | 115 | 3.0 | 13.0 | 0.00 | 0.00 | 0.00 | 35 | 1019.1 |
| 20260510171532 | 58 | 161 | 7.0 | 16.0 | 0.00 | 0.00 | 0.00 | 38 | 1019.0 |
| 20260510170031 | 59 | 109 | 6.0 | 16.0 | 0.00 | 0.00 | 0.00 | 31 | 1019.0 |
| 20260510164537 | 60 | 161 | 4.0 | 16.0 | 0.00 | 0.00 | 0.00 | 32 | 1018.8 |
| 20260510163031 | 60 | 352 | 3.0 | 15.0 | 0.00 | 0.00 | 0.00 | 40 | 1018.8 |
| 20260510161533 | 59 | 103 | 4.0 | 11.0 | 0.00 | 0.00 | 0.00 | 37 | 1018.8 |
| 20260510160035 | 58 | 138 | 2.0 | 14.0 | 0.00 | 0.00 | 0.00 | 32 | 1018.9 |
| 20260510154532 | 59 | 68 | 4.0 | 12.0 | 0.00 | 0.00 | 0.00 | 33 | 1018.9 |
| 20260510153033 | 59 | 98 | 4.0 | 9.0 | 0.00 | 0.00 | 0.00 | 37 | 1018.8 |
| 20260510151530 | 58 | 75 | 3.0 | 10.0 | 0.00 | 0.00 | 0.00 | 36 | 1018.8 |
| 20260510150030 | 57 | 38 | 3.0 | 10.0 | 0.00 | 0.00 | 0.00 | 36 | 1018.6 |
| 20260510144533 | 57 | 79 | 2.0 | 7.0 | 0.00 | 0.00 | 0.00 | 34 | 1018.6 |
| 20260510143033 | 57 | 19 | 2.0 | 9.0 | 0.00 | 0.00 | 0.00 | 40 | 1018.5 |
| 20260510141536 | 55 | 140 | 1.0 | 7.0 | 0.00 | 0.00 | 0.00 | 42 | 1018.3 |
| 20260510140032 | 55 | 10 | 2.0 | 5.0 | 0.00 | 0.00 | 0.00 | 42 | 1018.2 |
| 20260510134534 | 54 | 42 | 3.0 | 9.0 | 0.00 | 0.00 | 0.00 | 45 | 1018.1 |
| 20260510133034 | 52 | 44 | 0.0 | 3.0 | 0.00 | 0.00 | 0.00 | 56 | 1017.9 |
| 20260510131532 | 50 | 307 | 1.0 | 4.0 | 0.00 | 0.00 | 0.00 | 59 | 1017.9 |
| 20260510130029 | 47 | 318 | 0.0 | 5.0 | 0.00 | 0.00 | 0.00 | 70 | 1017.7 |
| 20260510124532 | 44 | 318 | 1.0 | 5.0 | 0.00 | 0.00 | 0.00 | 80 | 1017.4 |
| 20260510123030 | 41 | 318 | 3.0 | 5.0 | 0.00 | 0.00 | 0.00 | 90 | 1017.3 |
| 20260510121530 | 39 | 0 | 0.0 | 4.0 | 0.00 | 0.00 | 0.00 | 91 | 1017.3 |
| 20260510120034 | 37 | 304 | 2.0 | 5.0 | 0.00 | 0.00 | 0.00 | 91 | 1017.1 |
| 20260510114531 | 35 | 0 | 0.0 | 0.0 | 0.00 | 0.00 | 0.00 | 90 | 1017.0 |
| 20260510113030 | 33 | 0 | 0.0 | 0.0 | 0.00 | 0.00 | 0.00 | 88 | 1016.7 |
| 20260510111530 | 33 | 0 | 0.0 | 0.0 | 0.00 | 0.00 | 0.00 | 86 | 1016.3 |
| 20260510110034 | 33 | 0 | 0.0 | 0.0 | 0.00 | 0.00 | 0.00 | 85 | 1016.0 |
| 20260510104530 | 33 | 0 | 0.0 | 0.0 | 0.00 | 0.00 | 0.00 | 84 | 1016.0 |
| 20260510103029 | 33 | 0 | 0.0 | 0.0 | 0.00 | 0.00 | 0.00 | 83 | 1015.9 |
| 20260510101533 | 34 | 0 | 0.0 | 0.0 | 0.00 | 0.00 | 0.00 | 83 | 1015.8 |
| 20260510100038 | 34 | 0 | 0.0 | 0.0 | 0.00 | 0.00 | 0.00 | 83 | 1015.7 |
| 20260510094533 | 34 | 0 | 0.0 | 0.0 | 0.00 | 0.00 | 0.00 | 83 | 1015.8 |
| 20260510093040 | 35 | 0 | 0.0 | 0.0 | 0.00 | 0.00 | 0.00 | 82 | 1015.5 |
| 20260510091536 | 35 | 0 | 0.0 | 0.0 | 0.00 | 0.00 | 0.00 | 81 | 1015.4 |
| 20260510090034 | 36 | 0 | 0.0 | 0.0 | 0.00 | 0.00 | 0.00 | 81 | 1015.3 |
| 20260510084534 | 37 | 0 | 0.0 | 0.0 | 0.00 | 0.00 | 0.00 | 79 | 1015.0 |
| 20260510083038 | 38 | 0 | 0.0 | 0.0 | 0.00 | 0.00 | 0.00 | 78 | 1014.7 |
| 20260510081534 | 39 | 0 | 0.0 | 0.0 | 0.00 | 0.00 | 0.00 | 77 | 1014.5 |
| 20260510080029 | 40 | 0 | 0.0 | 0.0 | 0.00 | 0.00 | 0.00 | 76 | 1014.3 |
| 20260510074530 | 41 | 0 | 0.0 | 0.0 | 0.00 | 0.00 | 0.00 | 74 | 1014.1 |
| 20260510073029 | 42 | 0 | 0.0 | 0.0 | 0.00 | 0.00 | 0.00 | 71 | 1013.8 |
| 20260510071540 | 43 | 0 | 0.0 | 5.0 | 0.00 | 0.00 | 0.00 | 70 | 1013.4 |
| 20260510070032 | 44 | 0 | 0.0 | 4.0 | 0.00 | 0.00 | 0.00 | 69 | 1013.3 |
| 20260510064533 | 45 | 0 | 1.0 | 5.0 | 0.00 | 0.00 | 0.00 | 68 | 1013.3 |
| 20260510063030 | 45 | 26 | 2.0 | 6.0 | 0.00 | 0.00 | 0.00 | 68 | 1013.3 |
| 20260510061540 | 45 | 348 | 2.0 | 10.0 | 0.00 | 0.00 | 0.00 | 69 | 1013.2 |
| 20260510060032 | 46 | 32 | 6.0 | 14.0 | 0.00 | 0.00 | 0.00 | 70 | 1013.1 |
| 20260510054529 | 46 | 5 | 5.0 | 15.0 | 0.00 | 0.00 | 0.00 | 70 | 1012.9 |
| 20260510053030 | 46 | 16 | 6.0 | 18.0 | 0.00 | 0.00 | 0.00 | 70 | 1012.6 |
| 20260510051532 | 46 | 360 | 6.0 | 15.0 | 0.00 | 0.00 | 0.00 | 68 | 1012.4 |
| 20260510050030 | 45 | 5 | 5.0 | 12.0 | 0.00 | 0.00 | 0.00 | 69 | 1012.0 |
| 20260510044530 | 43 | 24 | 6.0 | 16.0 | 0.00 | 0.00 | 0.00 | 77 | 1011.6 |
| 20260510043030 | 41 | 0 | 0.0 | 0.0 | 0.00 | 0.00 | 0.00 | 78 | 1011.0 |
| 20260510041529 | 41 | 0 | 0.0 | 0.0 | 0.00 | 0.00 | 0.00 | 77 | 1010.8 |
| 20260510040030 | 42 | 0 | 0.0 | 0.0 | 0.00 | 0.00 | 0.00 | 76 | 1010.6 |
| 20260510034535 | 43 | 0 | 0.0 | 0.0 | 0.00 | 0.00 | 0.00 | 74 | 1010.4 |
| 20260510033034 | 43 | 0 | 0.0 | 0.0 | 0.00 | 0.00 | 0.00 | 73 | 1010.2 |
| 20260510031542 | 44 | 0 | 0.0 | 0.0 | 0.00 | 0.00 | 0.00 | 71 | 1010.2 |
| 20260510030030 | 45 | 0 | 0.0 | 0.0 | 0.00 | 0.00 | 0.00 | 70 | 1009.9 |
| 20260510024541 | 46 | 0 | 0.0 | 0.0 | 0.00 | 0.00 | 0.00 | 67 | 1009.7 |
| 20260510023030 | 47 | 0 | 0.0 | 0.0 | 0.00 | 0.00 | 0.00 | 65 | 1009.5 |
| 20260510021531 | 48 | 0 | 0.0 | 0.0 | 0.00 | 0.00 | 0.00 | 64 | 1009.2 |
| 20260510020030 | 49 | 0 | 0.0 | 2.0 | 0.00 | 0.00 | 0.00 | 61 | 1008.9 |
| 20260510014534 | 51 | 13 | 0.0 | 3.0 | 0.00 | 0.00 | 0.00 | 60 | 1008.5 |
| 20260510013029 | 52 | 13 | 0.0 | 4.0 | 0.00 | 0.00 | 0.00 | 56 | 1008.1 |
| 20260510011538 | 53 | 34 | 2.0 | 7.0 | 0.00 | 0.00 | 0.00 | 53 | 1007.8 |
| 20260510010031 | 54 | 65 | 2.0 | 5.0 | 0.00 | 0.00 | 0.00 | 52 | 1007.4 |
| 20260510004530 | 54 | 22 | 3.0 | 8.0 | 0.00 | 0.00 | 0.00 | 50 | 1007.2 |
| 20260510003055 | 55 | 12 | 4.0 | 13.0 | 0.00 | 0.00 | 0.00 | 49 | 1006.9 |
| 20260510001531 | 56 | 30 | 8.0 | 15.0 | 0.00 | 0.00 | 0.00 | 47 | 1006.6 |
| 20260510000036 | 57 | 42 | 5.0 | 15.0 | 0.00 | 0.00 | 0.00 | 46 | 1006.4 |
| 20260509234530 | 58 | 10 | 8.0 | 15.0 | 0.00 | 0.00 | 0.00 | 44 | 1006.1 |
| 20260509233031 | 60 | 13 | 5.0 | 17.0 | 0.00 | 0.00 | 0.00 | 43 | 1005.9 |
| 20260509231532 | 62 | 360 | 8.0 | 18.0 | 0.00 | 0.00 | 0.00 | 42 | 1005.7 |
| 20260509230034 | 66 | 30 | 7.0 | 17.0 | 0.00 | 0.00 | 0.00 | 38 | 1005.5 |
| 20260509224534 | 68 | 305 | 6.0 | 17.0 | 0.00 | 0.00 | 0.00 | 38 | 1005.1 |
| 20260509223031 | 68 | 299 | 9.0 | 20.0 | 0.00 | 0.00 | 0.00 | 37 | 1004.8 |
| 20260509221531 | 69 | 14 | 8.0 | 18.0 | 0.00 | 0.00 | 0.00 | 39 | 1004.5 |
| 20260509220030 | 69 | 318 | 10.0 | 20.0 | 0.00 | 0.00 | 0.00 | 37 | 1004.3 |
| 20260509214532 | 70 | 321 | 6.0 | 19.0 | 0.00 | 0.00 | 0.00 | 38 | 1003.9 |
| 20260509213032 | 70 | 294 | 5.0 | 16.0 | 0.00 | 0.00 | 0.00 | 33 | 1003.6 |
| 20260509211530 | 72 | 317 | 7.0 | 19.0 | 0.00 | 0.00 | 0.00 | 32 | 1003.4 |
| 20260509210032 | 73 | 336 | 7.0 | 23.0 | 0.00 | 0.00 | 0.00 | 32 | 1003.2 |
| 20260509204531 | 73 | 252 | 10.0 | 24.0 | 0.00 | 0.00 | 0.00 | 33 | 1003.0 |
| 20260509203036 | 74 | 323 | 15.0 | 30.0 | 0.00 | 0.00 | 0.00 | 29 | 1003.0 |
| 20260509201530 | 73 | 295 | 14.0 | 27.0 | 0.00 | 0.00 | 0.00 | 30 | 1002.8 |
| 20260509200030 | 73 | 236 | 8.0 | 20.0 | 0.00 | 0.00 | 0.00 | 34 | 1002.8 |
| 20260509194536 | 74 | 207 | 8.0 | 18.0 | 0.00 | 0.00 | 0.00 | 32 | 1002.7 |
| 20260509193032 | 74 | 340 | 7.0 | 20.0 | 0.00 | 0.00 | 0.00 | 32 | 1002.7 |
| 20260509191532 | 74 | 250 | 7.0 | 20.0 | 0.00 | 0.00 | 0.00 | 35 | 1002.6 |
| 20260509190030 | 72 | 205 | 5.0 | 15.0 | 0.00 | 0.00 | 0.00 | 36 | 1002.7 |
| 20260509184534 | 72 | 250 | 7.0 | 17.0 | 0.00 | 0.00 | 0.00 | 38 | 1002.7 |
| 20260509183033 | 71 | 333 | 8.0 | 18.0 | 0.00 | 0.00 | 0.00 | 36 | 1002.8 |
| 20260509181541 | 69 | 277 | 4.0 | 16.0 | 0.00 | 0.00 | 0.00 | 40 | 1002.8 |